Weather History for KTAZ - February, 2012

Change the Weather History Date:

Wednesday, February 8, 2012

  Actual Average (KSPI) Record (KSPI)
Temperature  
Mean Temperature 30 °F 29 °F  
Max Temperature 33 °F 38 °F 65 °F (2001)
Min Temperature 28 °F 21 °F -20 °F (1895)
Degree Days  
Heating Degree Days 34 36  
Month to date heating degree days 293  
Since 1 July heating degree days 3619  
Cooling Degree Days 0 0  
Month to date cooling degree days 0  
Year to date cooling degree days 0  
Moisture  
Dew Point 27 °F    
Average Humidity 87    
Maximum Humidity 100    
Minimum Humidity 70    
Precipitation  
Precipitation 0.00 in 0.06 in 1.08 in (1969)
Month to date precipitation 0.45  
Year to date precipitation 2.27  
Snow  
Snow 0.00 in 0.20 in 5.30 in (1903)
Month to date snowfall 1.7  
Since 1 July snowfall 14.3  
Snow Depth -    
Sea Level Pressure  
Sea Level Pressure 30.38 in    
Wind  
Wind Speed 10 mph (NNW)    
Max Wind Speed 13 mph    
Max Gust Speed -    
Visibility 8 miles    
Events Snow    
T = Trace of Precipitation, MM = Missing Value Source: NWS Daily Summary

Daily Weather History Graph

Daily Weather History Graph

Search for Another Location

Airport or City:

Trip Planner

Search our weather history database for the weather conditions in past years. The results will help you decide how hot, cold, wet, or windy it might be!

Date:

Astronomy

Feb. 08, 2012 Rise Set
Actual Time 6:58 AM CST 5:25 PM CST
Civil Twilight 6:30 AM CST 5:53 PM CST
Nautical Twilight 5:58 AM CST 6:25 PM CST
Astronomical Twilight 5:27 AM CST 6:56 PM CST
Moon 6:44 PM CST (2/8) 7:02 AM CST (2/8)
Length of Visible Light 11h 22m
Length of Day
10h 26m
Full, 99% of the Moon is Illuminated
Feb 8
Full
Feb 14
Last Quarter
Feb 21
New
Feb 29
First Quarter
Mar 8
Full

Hourly Weather History & Observations

Time (CST) Temp. Windchill Dew Point Humidity Pressure Visibility Wind Dir Wind Speed Gust Speed Precip Events Conditions
12:15 AM 32.0 °F 23.6 °F 30.2 °F 93% 30.34 in 1.5 mi North 10.4 mph - N/A Snow Light Snow
12:35 AM 30.2 °F 21.3 °F 30.2 °F 100% 30.34 in 0.8 mi North 10.4 mph - N/A Snow Light Snow
12:55 AM 30.2 °F 20.8 °F 30.2 °F 100% 30.34 in 0.8 mi North 11.5 mph - N/A Snow Light Snow
1:15 AM 30.2 °F 20.8 °F 30.2 °F 100% 30.34 in 1.5 mi North 11.5 mph - N/A Snow Light Snow
1:35 AM 30.2 °F 21.3 °F 30.2 °F 100% 30.35 in 1.5 mi North 10.4 mph - N/A Snow Light Snow
1:55 AM 30.2 °F 20.8 °F 30.2 °F 100% 30.35 in 2.0 mi North 11.5 mph - N/A Snow Light Snow
2:15 AM 30.2 °F 21.9 °F 30.2 °F 100% 30.35 in 4.0 mi North 9.2 mph - N/A Snow Light Snow
2:35 AM 30.2 °F 21.9 °F 30.2 °F 100% 30.35 in 3.0 mi North 9.2 mph - N/A Snow Light Snow
2:55 AM 30.2 °F 22.6 °F 28.4 °F 93% 30.35 in 3.0 mi North 8.1 mph - N/A Snow Light Snow
3:15 AM 30.2 °F 21.9 °F 28.4 °F 93% 30.35 in 2.0 mi North 9.2 mph - N/A Snow Light Snow
3:35 AM 30.2 °F 21.9 °F 28.4 °F 93% 30.35 in 3.0 mi North 9.2 mph - N/A Snow Light Snow
3:55 AM 28.4 °F 19.1 °F 28.4 °F 100% 30.35 in 7.0 mi North 10.4 mph - N/A   Mostly Cloudy
4:15 AM 28.4 °F 19.1 °F 28.4 °F 100% 30.35 in 7.0 mi North 10.4 mph - N/A   Mostly Cloudy
4:35 AM 28.4 °F 18.5 °F 28.4 °F 100% 30.36 in 4.0 mi North 11.5 mph - N/A Snow Light Snow
4:55 AM 28.4 °F 18.5 °F 28.4 °F 100% 30.36 in 5.0 mi North 11.5 mph - N/A Snow Light Snow
5:15 AM 28.4 °F 18.5 °F 28.4 °F 100% 30.36 in 5.0 mi North 11.5 mph - N/A Snow Light Snow
5:35 AM 28.4 °F 18.0 °F 28.4 °F 100% 30.36 in 7.0 mi NNW 12.7 mph - N/A Snow Light Snow
5:55 AM 28.4 °F 19.1 °F 26.6 °F 93% 30.37 in 10.0 mi NNW 10.4 mph - N/A   Overcast
6:15 AM 28.4 °F 19.1 °F 26.6 °F 93% 30.36 in 7.0 mi North 10.4 mph - N/A   Overcast
6:35 AM 28.4 °F 19.7 °F 26.6 °F 93% 30.37 in 7.0 mi North 9.2 mph - N/A   Overcast
6:55 AM 28.4 °F 18.5 °F 26.6 °F 93% 30.38 in 10.0 mi NNW 11.5 mph - N/A   Overcast
7:15 AM 28.4 °F 19.7 °F 26.6 °F 93% 30.38 in 10.0 mi NNW 9.2 mph - N/A   Overcast
7:35 AM 28.4 °F 19.1 °F 26.6 °F 93% 30.39 in 10.0 mi NNW 10.4 mph - N/A   Overcast
7:55 AM 28.4 °F 19.1 °F 26.6 °F 93% 30.40 in 10.0 mi NNW 10.4 mph - N/A   Overcast
8:15 AM 28.4 °F 19.1 °F 26.6 °F 93% 30.40 in 10.0 mi NNW 10.4 mph - N/A   Overcast
8:35 AM 28.4 °F 19.1 °F 26.6 °F 93% 30.40 in 10.0 mi NNW 10.4 mph - N/A   Overcast
8:55 AM 28.4 °F 19.1 °F 26.6 °F 93% 30.41 in 10.0 mi NNW 10.4 mph - N/A   Overcast
9:15 AM 30.2 °F 21.9 °F 26.6 °F 86% 30.41 in 10.0 mi NNW 9.2 mph - N/A   Overcast
9:35 AM 30.2 °F 21.9 °F 26.6 °F 86% 30.41 in 10.0 mi NNW 9.2 mph - N/A   Mostly Cloudy
9:55 AM 30.2 °F 21.3 °F 26.6 °F 86% 30.41 in 10.0 mi NNW 10.4 mph - N/A   Overcast
10:15 AM 30.2 °F 21.3 °F 26.6 °F 86% 30.41 in 10.0 mi NNW 10.4 mph - N/A   Overcast
10:35 AM 30.2 °F 21.3 °F 26.6 °F 86% 30.41 in 10.0 mi NNW 10.4 mph - N/A   Overcast
10:55 AM 30.2 °F 20.8 °F 26.6 °F 86% 30.42 in 10.0 mi NNW 11.5 mph - N/A   Overcast
11:15 AM 30.2 °F 20.8 °F 26.6 °F 86% 30.41 in 10.0 mi NNW 11.5 mph - N/A   Overcast
11:35 AM 32.0 °F 23.0 °F 26.6 °F 80% 30.41 in 10.0 mi NNW 11.5 mph - N/A   Overcast
11:55 AM 32.0 °F 23.6 °F 24.8 °F 75% 30.41 in 10.0 mi NNW 10.4 mph - N/A   Overcast
12:15 PM 32.0 °F 23.6 °F 24.8 °F 75% 30.40 in 10.0 mi NNW 10.4 mph - N/A   Overcast
12:35 PM 32.0 °F 23.6 °F 24.8 °F 75% 30.40 in 10.0 mi NW 10.4 mph - N/A   Overcast
12:55 PM 32.0 °F 22.5 °F 24.8 °F 75% 30.39 in 10.0 mi North 12.7 mph - N/A   Overcast
1:15 PM 32.0 °F 23.0 °F 24.8 °F 75% 30.38 in 10.0 mi NNW 11.5 mph - N/A   Overcast
1:35 PM 33.8 °F 25.8 °F 26.6 °F 75% 30.37 in 10.0 mi NNW 10.4 mph - N/A   Overcast
1:55 PM 33.8 °F 26.4 °F 24.8 °F 70% 30.37 in 10.0 mi NW 9.2 mph - N/A   Overcast
2:15 PM 33.8 °F 26.4 °F 26.6 °F 75% 30.37 in 10.0 mi NW 9.2 mph - N/A   Overcast
2:35 PM 33.8 °F 27.0 °F 24.8 °F 70% 30.37 in 10.0 mi NW 8.1 mph - N/A   Overcast
2:55 PM 33.8 °F 25.3 °F 24.8 °F 70% 30.37 in 10.0 mi NW 11.5 mph - N/A   Overcast
3:15 PM 33.8 °F 26.4 °F 24.8 °F 70% 30.37 in 10.0 mi NW 9.2 mph - N/A   Overcast
3:35 PM 33.8 °F 27.0 °F 24.8 °F 70% 30.37 in 10.0 mi NW 8.1 mph - N/A   Overcast
3:55 PM 32.0 °F 24.8 °F 24.8 °F 75% 30.37 in 10.0 mi WNW 8.1 mph - N/A   Overcast
4:15 PM 32.0 °F 24.2 °F 24.8 °F 75% 30.37 in 10.0 mi West 9.2 mph - N/A   Overcast
4:35 PM 32.0 °F 24.2 °F 24.8 °F 75% 30.37 in 10.0 mi West 9.2 mph - N/A   Overcast
4:55 PM 32.0 °F 23.6 °F 24.8 °F 75% 30.38 in 10.0 mi West 10.4 mph - N/A   Overcast
5:15 PM 30.2 °F 22.6 °F 24.8 °F 80% 30.38 in 10.0 mi WNW 8.1 mph - N/A   Overcast
5:35 PM 30.2 °F 21.9 °F 24.8 °F 80% 30.38 in 10.0 mi WNW 9.2 mph - N/A   Overcast
5:55 PM 30.2 °F 20.8 °F 24.8 °F 80% 30.37 in 10.0 mi WNW 11.5 mph - N/A   Overcast
6:15 PM 30.2 °F 20.8 °F 23.0 °F 75% 30.37 in 10.0 mi NW 11.5 mph - N/A   Overcast
6:35 PM 30.2 °F 21.9 °F 23.0 °F 75% 30.37 in 10.0 mi NNW 9.2 mph - N/A   Overcast
6:55 PM 30.2 °F 23.4 °F 24.8 °F 80% 30.37 in 10.0 mi NNW 6.9 mph - N/A   Overcast
7:15 PM 30.2 °F 22.6 °F 24.8 °F 80% 30.38 in 10.0 mi NW 8.1 mph - N/A   Overcast
7:35 PM 30.2 °F 23.4 °F 24.8 °F 80% 30.38 in 10.0 mi NW 6.9 mph - N/A   Overcast
7:55 PM 30.2 °F 25.4 °F 24.8 °F 80% 30.38 in 10.0 mi NW 4.6 mph - N/A   Overcast
8:35 PM 30.2 °F 24.3 °F 24.8 °F 80% 30.38 in 10.0 mi NW 5.8 mph - 0.01 in   Unknown
8:55 PM 30.2 °F 25.4 °F 24.8 °F 80% 30.38 in 10.0 mi NNW 4.6 mph - N/A   Unknown
9:15 PM 30.2 °F 25.4 °F 24.8 °F 80% 30.38 in 10.0 mi NNW 4.6 mph - N/A   Unknown
9:35 PM 30.2 °F 26.7 °F 24.8 °F 80% 30.38 in 10.0 mi NNW 3.5 mph - N/A   Unknown
9:55 PM 30.2 °F 23.4 °F 24.8 °F 80% 30.38 in 10.0 mi NNW 6.9 mph - N/A   Unknown
10:15 PM 30.2 °F 25.4 °F 23.0 °F 75% 30.38 in 10.0 mi WNW 4.6 mph - N/A   Unknown
10:35 PM 30.2 °F 23.4 °F 23.0 °F 75% 30.38 in 10.0 mi NW 6.9 mph - N/A   Overcast
10:55 PM 30.2 °F 24.3 °F 23.0 °F 75% 30.37 in 10.0 mi WNW 5.8 mph - N/A   Overcast
11:15 PM 30.2 °F 25.4 °F 23.0 °F 75% 30.37 in 10.0 mi WNW 4.6 mph - N/A   Overcast
11:55 PM 30.2 °F 23.4 °F 21.2 °F 69% 30.37 in 10.0 mi WNW 6.9 mph - N/A   Unknown